一网星座-0439星 (ONEWEB-0439 )

导读

ONEWEB-0439是英国OneWeb卫星互联网星座的组网卫星,于2022年2月10日发射入轨。该卫星属于OneWeb全球低轨宽带星座的组成部分,单星重约147.5公斤,运行于高度约1200公里的近地轨道,配备Ku波段相控阵天线,主要用于提供全球覆盖的高速卫星宽带通信服务。作为OneWeb大规模星座部署中的一员,它的成功发射助力OneWeb实现全球卫星互联网服务覆盖目标,卫星设计寿命25年,到期后将按计划安全脱轨以减少太空碎片。

基本信息
目录编号:
51635
目录名称:
ONEWEB-0439
国际标识:
2022-012P
轨道中心:
EARTH
卫星名称:
一网星座-0439星
卫星全名:
一网星座-0439星 (ONEWEB-0439 )
卫星状态:
在轨 (已飞行1585 天)
发射日期:
2022-02-10 UTC
国别 :
英国 (GB)
星等 :
--
轨道信息
数据来源 国际轨道数据 AOE轨道数据
星历时间 2026-06-14T05:34:29+0800
14小时前
查看轨道信息
2026-06-08T02:00:00+0800
6天前
查看轨道信息
半长轴 7599.852km 7599.851km
偏心率 0.0001798 0.0002486
轨道倾角 87.883° 87.886°
近地点辐角 79.106° 64.884°
升交点赤经 36.923° 38.145°
平近点角 281.027° 105.041°
近地点 1220.348km 1219.824km
远地点 1223.082km 1223.604km
周期 109.892分钟 109.892分钟
每日圈数 13.103736 13.103737
详细信息
平衡模式:
三轴稳定
覆盖范围:
全球
运营商:
一网卫星公司
运营商所在国:
英国
制造商(研发单位):
一网卫星公司
制造商所在国:
英国
使用方式:
暂无
卫星简介
OneWeb卫星网络由648颗重约125公斤的微型卫星组成,运行在1200公里的轨道上。 每颗卫星都能够提供至少每秒8千兆位的吞吐量,以使用其高吞吐量的Ku频段有效载荷为家庭和移动平台提供互联网接入。该卫星仍在工作。
2D轨道图
3D轨道图
轨道高度分析图
轨道倾角分析图
轨道综合分析图
查看轨道综合分析图